Location: Kuffner-Sternwarte
(48.2130°N, 16.2960°E)
Time: 15:34:03
(UTC+01:00)

OTV 5 (USA 277) - Visible Passes

Search period start: 22 February 2019 00:00
Search period end: 04 March 2019 00:00
Orbit: 342 x 346 km, 54.5° (Epoch: 17 February)

Date Brightness Start Highest point End Pass type
(mag) Time Alt. Az. Time Alt. Az. Time Alt. Az.
23 Feb ? 19:38:12 10° SSW 19:38:25 11° SSW 19:38:25 11° SSW visible
24 Feb ? 18:28:16 10° S 18:29:58 15° SE 18:30:29 14° ESE visible
24 Feb ? 20:01:39 10° WSW 20:01:57 12° WSW 20:01:57 12° WSW visible
25 Feb ? 18:50:40 10° SSW 18:53:22 38° SE 18:53:53 34° ESE visible
26 Feb ? 19:14:04 10° WSW 19:16:57 79° NNW 19:17:10 72° NNE visible
27 Feb ? 18:03:07 10° SSW 18:05:49 36° SE 18:08:31 10° ENE visible
27 Feb ? 19:38:00 10° W 19:40:19 35° NW 19:40:19 35° NW visible
28 Feb ? 18:26:30 10° WSW 18:29:23 82° NNW 18:31:57 13° ENE visible
28 Feb ? 20:02:07 10° WNW 20:03:23 19° NW 20:03:23 19° NW visible
01 Mar ? 18:50:24 10° W 18:53:09 38° NNW 18:54:57 18° NE visible
01 Mar ? 20:26:12 10° NW 20:26:23 11° NW 20:26:23 11° NW visible
02 Mar ? 19:14:32 10° WNW 19:17:02 25° N 19:17:54 22° NNE visible
03 Mar ? 19:38:37 10° NW 19:40:48 22° N 19:40:48 22° N visible
